{"data":{"norad_id":66963,"intl_designator":"2025-288E","name":"STARLINK-36133","alt_names":[],"object_type":"PAYLOAD","status":"ACTIVE","operator":null,"country":"US","launch_date":"2025-12-08","launch_site_code":"AFETR","launch_vehicle":null,"mission":null,"orbit_class":"UNKNOWN","rcs_meters":null,"size_class":null,"mass_kg":null,"dimensions":null,"purposes":["comms"],"wikipedia_slug":null,"has_3d_model":false,"image_url":null,"decayed_at":null,"tle_current":{"epoch":"2026-09-20T17:16:32.601792Z","epoch_age_seconds":63469,"freshness":"FRESH","line1":"1 66963U 25288E   26263.71982178  .00009870  00000+0  36756-3 0  9990","line2":"2 66963  43.0023   2.1200 0001237 276.0880  83.9831 15.27592829 45116","mean_motion":15.27592829,"eccentricity":0.0001237,"inclination_deg":43.0023,"raan_deg":2.12,"arg_perigee_deg":276.088,"mean_anomaly_deg":83.9831,"bstar":0.00036756,"rev_number":4511,"period_min":94.2659570445,"perigee_km":482.16195769907,"apogee_km":483.85940563551,"semimajor_km":6861.1476816673,"source":"CELESTRAK","updated_at":"2026-09-21T09:00:36.062602Z"}}}